User: anonymous   Login
Location: Oshawa
(43.9000°N, 78.8670°W)
Time: 03:45:58
(UTC-04:00)
Language:

Envisat - Orbit

View from above orbital plane
View from above orbital plane
View from above satellite
View from above satellite

Ground track
Ground track

The orbit data is extracted from the following two-line orbital elements,

1 27386U 02009A   14296.77992227  .00000160  00000-0  67332-4 0  5756
2 27386 098.3683 358.8831 0001134 107.0690 029.8346 14.37742918662050
Epoch (UTC): 23 October 2014 18:43:05
Eccentricity: 0.0001134
inclination: 98.3683°
perigee height: 765 km
apogee height: 767 km
right ascension of ascending node: 358.8831°
argument of perigee: 107.0690°
revolutions per day: 14.37742918
mean anomaly at epoch: 29.8346°
orbit number at epoch: 66205

The dashed part of the orbit path shows where the satellite is in the earth's shadow,  

DLR